Zurück zum Katalog

SL-8 R/B

AktivLEO
NORAD 14402·ROCKET BODY·🇷🇺 Russia

Gestartet Oct 12, 1983 von Plesetsk Cosmodrome

Loading…

Nächste Überflüge (nächste 24 Stunden)

TLE

AktuellSource: Space-Track

Epoche: Sep 14, 2026, 17:59 UTC

1 14402U 83103B   26257.74981256  .00000123  00000-0  49757-4 0  9992
2 14402  74.0457 174.9360 0027599 264.7209  95.0795 14.37433487246801

Verfolge SL-8 R/B in Echtzeit mit AllMySat

Download on the App Store